Location: Unspecified
(33.2407°S, 0.0000°E)
Time: 14:29:52
(UTC+00:00)

Hubble Space Telescope - Pass Details

Date: 27 May 2019
Orbit: 536 x 540 km, 28.5° (Epoch: 25 June)

Event Time Altitude Azimuth Distance (km) Brightness Sun altitude
Exits shadow 04:13:53 10° 34° (NE) 1,761 3.8 -32.5°
Drops below altitude 10° 04:14:00 10° 35° (NE) 1,796 3.8 -32.5°
Sets 04:16:35 0° 49° (NE) 2,678 5.1 -32.0°
